DW0326 Weather Reports


Display with metric or nautical units.
time (UTC)temp
F
wind
direction
speed
MPH
gust
MPH
rain 1hr
in
rain 24hr
in
rain mn
in
humidity
%
barometer
mb
20260901160052 87 0 0.0 0.0 0.00 0.00 0.00 80 1011.5
20260901155152 86 0 0.0 0.0 0.00 0.00 0.00 83 1011.5
20260901152452 85 2 1.0 6.0 0.00 0.00 0.00 85 1011.5
20260901151552 85 2 1.0 5.0 0.00 0.00 0.00 85 1011.7
20260901150651 84 15 0.0 4.0 0.00 0.00 0.00 86 1011.7
20260901145752 84 14 1.0 6.0 0.00 0.00 0.00 86 1011.6
20260901144852 84 4 1.0 6.0 0.00 0.00 0.00 87 1011.5
20260901143951 84 359 0.0 5.0 0.00 0.00 0.00 87 1011.5
20260901143051 84 0 0.0 0.0 0.00 0.00 0.00 88 1011.7
20260901142152 83 0 0.0 0.0 0.00 0.00 0.00 87 1011.7
20260901141252 83 0 0.0 0.0 0.00 0.00 0.00 88 1011.7
20260901140352 83 32 1.0 5.0 0.00 0.00 0.00 89 1011.7
20260901135451 83 0 0.0 0.0 0.00 0.00 0.00 90 1011.7
20260901134552 82 0 0.0 0.0 0.00 0.00 0.00 91 1011.7
20260901133652 82 0 0.0 0.0 0.00 0.00 0.00 93 1011.7
20260901132752 81 0 0.0 0.0 0.00 0.00 0.00 95 1011.7
20260901131851 81 0 0.0 0.0 0.00 0.00 0.00 95 1011.3
20260901130952 80 0 0.0 0.0 0.00 0.00 0.00 94 1011.3
20260901124019 80 0 0.0 0.0 0.00 0.00 0.00 96 1010.9
20260901123119 80 0 0.0 0.0 0.00 0.00 0.00 95 1010.7
20260901122219 80 0 0.0 0.0 0.00 0.00 0.00 95 1010.7
20260901121320 80 0 0.0 0.0 0.00 0.00 0.00 95 1010.7
20260901114619 80 0 0.0 0.0 0.00 0.00 0.00 94 1010.6
20260901113719 80 0 0.0 0.0 0.00 0.00 0.00 94 1010.6
20260901112819 80 0 0.0 0.0 0.00 0.00 0.00 94 1010.6
20260901111920 80 0 0.0 0.0 0.00 0.00 0.00 94 1010.5
20260901111019 80 0 0.0 0.0 0.00 0.00 0.00 94 1010.5
20260901104320 80 0 0.0 0.0 0.00 0.00 0.00 93 1010.3
20260901103419 80 0 0.0 0.0 0.00 0.00 0.00 93 1010.2
20260901102519 80 0 0.0 0.0 0.00 0.00 0.00 93 1010.2
20260901101619 80 0 0.0 0.0 0.00 0.00 0.00 93 1010.3
20260901100719 80 0 0.0 0.0 0.00 0.00 0.00 92 1010.3
20260901095819 80 0 0.0 0.0 0.00 0.00 0.00 93 1010.3
20260901093119 81 0 0.0 0.0 0.00 0.00 0.00 92 1010.5
20260901092219 81 0 0.0 0.0 0.00 0.00 0.00 92 1010.5
20260901091319 81 0 0.0 0.0 0.00 0.00 0.00 91 1010.6
20260901090419 81 0 0.0 0.0 0.00 0.00 0.00 91 1010.6
20260901084619 81 0 0.0 0.0 0.00 0.00 0.00 91 1010.5
20260901083719 81 0 0.0 0.0 0.00 0.00 0.00 92 1010.5
20260901082819 81 0 0.0 0.0 0.00 0.00 0.00 92 1010.5
20260901081919 81 0 0.0 0.0 0.00 0.00 0.00 92 1010.5
20260901081019 81 0 0.0 0.0 0.00 0.00 0.00 92 1010.5
20260901074320 81 0 0.0 0.0 0.00 0.00 0.00 91 1010.6
20260901073419 81 0 0.0 0.0 0.00 0.00 0.00 91 1010.6
20260901072519 81 0 0.0 0.0 0.00 0.00 0.00 91 1010.6
20260901071620 81 0 0.0 0.0 0.00 0.00 0.00 90 1010.7
20260901070719 81 0 0.0 0.0 0.00 0.00 0.00 90 1010.7
20260901065819 82 0 0.0 0.0 0.00 0.00 0.00 90 1010.9
20260901064920 82 0 0.0 0.0 0.00 0.00 0.00 89 1010.8
20260901063119 82 0 0.0 0.0 0.00 0.00 0.00 89 1010.9
20260901061319 82 0 0.0 0.0 0.00 0.00 0.00 88 1011.0
20260901060419 83 0 0.0 0.0 0.00 0.00 0.00 88 1011.0
20260901055519 83 0 0.0 0.0 0.00 0.00 0.00 88 1011.0
20260901052819 84 0 0.0 0.0 0.00 0.00 0.00 86 1010.8
20260901051919 84 0 0.0 0.0 0.00 0.00 0.00 86 1010.7
20260901051019 84 0 0.0 0.0 0.00 0.00 0.00 85 1010.7
20260901050118 84 0 0.0 0.0 0.00 0.00 0.00 85 1010.6
20260901045219 84 0 0.0 0.0 0.00 0.00 0.00 84 1010.6
20260901044319 84 0 0.0 0.0 0.00 0.00 0.00 84 1010.6
20260901043419 85 0 0.0 0.0 0.00 0.00 0.00 84 1010.6
20260901042519 85 0 0.0 0.0 0.00 0.00 0.00 84 1010.6
20260901040719 85 0 0.0 0.0 0.00 0.00 0.00 83 1010.6
20260901035819 85 0 0.0 0.0 0.00 0.00 0.00 83 1010.7
20260901034919 85 0 0.0 0.0 0.00 0.00 0.00 83 1010.6
20260901033119 85 0 0.0 0.0 0.00 0.00 0.00 81 1010.6
20260901032219 85 0 0.0 0.0 0.00 0.00 0.00 81 1010.6
20260901030419 86 0 0.0 0.0 0.00 0.00 0.00 80 1009.8
20260901025519 86 0 0.0 0.0 0.00 0.00 0.00 80 1009.8
20260901024619 86 0 0.0 0.0 0.00 0.00 0.00 80 1009.6
20260901023719 86 0 0.0 0.0 0.00 0.00 0.00 79 1009.6
20260901022818 86 0 0.0 0.0 0.00 0.00 0.00 79 1009.6
20260901021919 86 0 0.0 0.0 0.00 0.00 0.00 78 1009.4
20260901021019 86 0 0.0 0.0 0.00 0.00 0.00 78 1009.4
20260901020118 86 0 0.0 0.0 0.00 0.00 0.00 78 1009.2
20260901015219 86 0 0.0 0.0 0.00 0.00 0.00 78 1009.2
20260901014319 86 164 0.0 4.0 0.00 0.00 0.00 77 1009.2
20260901013419 87 0 0.0 0.0 0.00 0.00 0.00 77 1009.2
20260901011619 87 0 0.0 0.0 0.00 0.00 0.00 77 1009.2
20260901004919 88 164 0.0 6.0 0.00 0.00 0.00 75 1009.5
20260901004019 88 164 0.0 6.0 0.00 0.00 0.00 74 1009.5
20260901003118 88 0 0.0 0.0 0.00 0.00 0.00 74 1009.4
20260901001319 89 164 0.0 6.0 0.00 0.00 0.00 74 1009.3
20260901000420 89 164 0.0 6.0 0.00 0.00 0.00 74 1009.3
20260831235518 89 0 0.0 0.0 0.00 0.00 0.00 74 1009.3
20260831234618 89 0 0.0 0.0 0.00 0.00 0.00 73 1009.3
20260831233719 89 0 0.0 0.0 0.00 0.00 0.00 74 1009.3
20260831232818 89 0 0.0 0.0 0.00 0.00 0.00 74 1009.4
20260831231019 89 0 0.0 0.0 0.00 0.00 0.00 74 1009.4
20260831225218 89 0 0.0 0.0 0.00 0.00 0.00 76 1009.5
20260831224318 89 0 0.0 0.0 0.00 0.00 0.00 75 1009.5
20260831223418 89 155 0.0 5.0 0.00 0.00 0.00 76 1009.5
20260831222518 88 0 0.0 0.0 0.00 0.00 0.00 75 1009.5
20260831221618 88 0 0.0 0.0 0.00 0.00 0.00 76 1009.6
20260831215819 88 0 0.0 0.0 0.00 0.00 0.00 77 1009.7
20260831214919 87 0 0.0 0.0 0.00 0.00 0.00 78 1009.9
20260831214019 87 0 0.0 0.0 0.00 0.00 0.00 78 1009.9
20260831211319 85 0 0.0 0.0 0.00 0.00 0.00 81 1010.4
20260831210418 84 0 0.0 0.0 0.00 0.00 0.00 80 1010.6
20260831204619 84 0 0.0 0.0 0.00 0.00 0.00 84 1010.6
20260831202818 84 0 0.0 0.0 0.00 0.00 0.00 84 1010.9
20260831201918 84 0 0.0 0.0 0.00 0.00 0.00 86 1011.1
20260831201019 85 0 0.0 0.0 0.00 0.00 0.00 83 1011.1
20260831200118 86 96 0.0 2.0 0.00 0.00 0.00 81 1011.1
20260831195219 87 102 1.0 9.0 0.00 0.00 0.00 78 1011.1
20260831194318 88 87 3.0 11.0 0.00 0.00 0.00 75 1011.2
20260831193418 89 90 2.0 12.0 0.00 0.00 0.00 74 1011.6
20260831190718 92 119 1.0 7.0 0.00 0.00 0.00 71 1011.3
20260831185819 93 87 0.0 7.0 0.00 0.00 0.00 69 1011.4
20260831184918 93 89 0.0 4.0 0.00 0.00 0.00 68 1011.7
20260831181318 93 0 0.0 0.0 0.00 0.00 0.00 69 1012.0
20260831175519 92 0 0.0 0.0 0.00 0.00 0.00 69 1012.1
20260831172818 92 0 0.0 0.0 0.00 0.00 0.00 71 1012.2
20260831171018 92 108 0.0 1.0 0.00 0.00 0.00 69 1012.3
20260831170119 92 88 0.0 6.0 0.00 0.00 0.00 70 1012.4
20260831165218 91 0 0.0 0.0 0.00 0.00 0.00 72 1012.4
20260831164318 91 0 0.0 0.0 0.00 0.00 0.00 72 1012.6
20260831161618 90 4 0.0 6.0 0.00 0.00 0.00 75 1012.6
20260831160718 90 302 0.0 4.0 0.00 0.00 0.00 74 1012.6